Date,TemperatureHighF,TemperatureAvgF,TemperatureLowF,DewpointHighF,DewpointAvgF,DewpointLowF,HumidityHigh,HumidityAvg,HumidityLow,PressureMaxIn,PressureMinIn,WindSpeedMaxMPH,WindSpeedAvgMPH,GustSpeedMaxMPH,PrecipitationSumIn
2013-1-1,19,6,-14,15,2,-19,87,82,76,30.47,30.09,7,2,9,0.00
2013-1-2,28,16,2,24,11,-3,89,81,75,30.42,30.00,13,2,15,0.00
2013-1-3,22,11,-2,15,6,-7,83,80,75,30.47,30.12,8,3,13,0.00
2013-1-4,25,16,4,17,11,0,88,78,70,30.26,30.13,5,1,7,0.00
2013-1-5,15,7,-2,10,2,-7,86,81,71,30.32,30.10,11,1,15,0.00
2013-1-6,16,12,1,11,8,-2,86,82,75,30.36,29.94,7,2,12,0.00
2013-1-7,33,24,12,24,18,9,89,78,67,30.06,29.89,7,3,12,0.00
2013-1-8,33,24,8,26,19,4,89,81,70,30.04,29.79,11,2,17,0.00
2013-1-9,32,24,19,24,18,13,80,76,71,30.38,29.93,13,4,20,0.00
2013-1-10,42,34,26,31,27,21,90,74,55,30.17,29.68,13,5,19,0.21
2013-1-11,33,24,10,31,21,7,93,90,86,29.68,29.57,11,3,19,0.03
2013-1-12,10,2,-3,6,-2,-8,85,80,75,30.38,29.65,16,6,23,0.00
2013-1-13,7,0,-6,0,-5,-12,81,76,71,30.46,30.34,6,1,9,0.00
2013-1-14,11,3,-5,3,-2,-10,85,78,69,30.55,30.39,4,1,9,0.00
2013-1-15,26,12,-2,23,6,-6,88,78,68,30.39,29.73,12,4,15,0.00
2013-1-16,35,11,-5,31,4,-14,90,73,57,30.50,29.70,9,3,19,0.00
2013-1-17,10,6,-3,6,-1,-12,83,73,63,30.62,30.32,7,1,11,0.00
2013-1-18,25,20,11,20,15,6,86,82,78,30.31,29.83,8,2,14,0.00
2013-1-19,35,11,-5,29,6,-11,88,79,72,30.54,29.81,17,6,28,0.00
2013-1-20,2,-4,-12,-6,-12,-20,79,70,63,30.61,30.54,10,4,18,0.00
2013-1-21,-6,-12,-16,-14,-20,-23,76,69,63,30.60,30.53,8,2,12,0.00
2013-1-22,7,-5,-17,2,-12,-23,79,73,67,30.58,30.38,4,1,7,0.00
2013-1-23,7,-5,-15,2,-11,-23,84,72,62,30.90,30.35,12,3,18,0.00
2013-1-24,11,-3,-15,4,-10,-23,79,70,67,30.90,30.19,9,3,16,0.00
2013-1-25,13,2,-8,7,-5,-13,80,74,69,30.53,30.12,14,4,21,0.00
2013-1-26,16,6,-8,9,0,-13,81,75,68,30.53,30.20,7,2,14,0.00
2013-1-27,30,19,6,24,14,1,90,81,75,30.20,29.94,3,0,4,0.00
2013-1-28,28,26,24,27,24,21,92,91,89,29.97,29.86,2,0,5,0.00
2013-1-29,25,21,14,21,17,9,90,85,80,30.11,29.81,0,0,0,0.00
2013-1-30,14,5,-8,9,0,-14,83,79,75,30.13,30.03,8,1,17,0.00
2013-1-31,-7,-10,-17,-14,-17,-24,79,73,67,30.55,30.14,14,3,17,0.00
2013-2-1,0,-10,-21,-5,-16,-27,81,75,69,30.52,30.27,3,0,7,0.00
2013-2-2,8,-2,-14,3,-7,-19,82,79,72,30.42,30.18,8,1,12,0.00
2013-2-3,7,4,-1,0,-2,-6,83,76,65,30.31,30.21,6,1,6,0.00
2013-2-4,18,6,-4,15,0,-9,88,76,59,30.27,29.77,9,2,17,0.00
2013-2-5,26,12,5,23,6,0,88,79,74,30.24,29.78,8,2,16,0.00
2013-2-6,29,19,8,22,14,3,84,81,73,30.26,30.03,7,2,8,0.01
2013-2-7,18,13,7,14,9,3,87,84,80,30.50,30.26,6,2,9,0.00
2013-2-8,24,18,11,19,14,7,89,84,76,30.49,30.18,14,2,14,0.00
2013-2-9,31,27,21,27,23,17,91,86,79,30.17,30.00,9,2,14,0.00
2013-2-10,28,27,24,26,25,21,92,92,89,29.99,29.66,16,6,19,0.00
2013-2-11,23,19,14,21,16,10,90,86,81,30.15,29.83,14,5,21,0.00
2013-2-12,29,21,11,24,16,7,87,82,76,30.08,29.90,6,2,9,0.00
2013-2-13,32,24,16,27,20,13,90,85,75,29.92,29.74,7,1,8,0.00
2013-2-14,18,11,4,14,6,-1,89,80,74,30.45,29.93,7,2,17,0.00
2013-2-15,12,4,-3,5,-1,-7,85,81,69,30.59,30.43,3,1,5,0.00
2013-2-16,15,7,-8,11,3,-12,86,81,74,30.43,30.15,6,2,12,0.00
2013-2-17,30,23,12,26,18,8,87,83,78,30.14,29.63,12,4,17,0.00
2013-2-18,29,9,-3,26,5,-7,90,84,80,30.31,29.63,18,7,31,0.00
2013-2-19,-3,-9,-16,-7,-14,-21,81,78,75,30.73,30.32,11,4,23,0.00
2013-2-20,2,-9,-20,-5,-15,-25,81,76,71,30.74,30.59,2,0,4,0.00
2013-2-21,18,4,-10,9,-2,-14,82,75,66,30.64,30.36,4,0,5,0.00
2013-2-22,18,13,8,13,8,3,88,80,73,30.36,30.09,8,1,10,0.00
2013-2-23,23,13,2,17,10,-1,89,85,73,30.13,30.03,2,0,3,0.00
2013-2-24,23,12,-2,16,6,-6,88,80,68,30.23,30.13,4,1,10,0.00
2013-2-25,28,19,9,20,15,5,90,84,71,30.25,30.16,7,2,11,0.00
2013-2-26,24,19,11,21,16,8,89,88,84,30.25,30.17,4,1,7,0.00
2013-2-27,28,16,6,23,13,2,89,86,81,30.36,30.25,12,2,15,0.00
2013-2-28,27,22,16,20,17,12,87,81,73,30.46,30.36,6,2,11,0.01
2013-3-1,24,14,6,16,10,3,87,81,69,30.59,30.46,5,1,6,0.00
2013-3-2,25,14,0,16,8,-4,86,76,62,30.53,30.24,5,1,9,0.00
2013-3-3,31,23,9,23,15,5,86,73,62,30.24,29.99,11,3,13,0.00
2013-3-4,26,24,23,23,21,17,90,86,69,30.14,29.97,9,6,14,0.00
2013-3-5,24,22,18,21,18,14,90,85,78,30.56,30.15,9,3,13,0.00
2013-3-6,25,17,7,16,12,4,88,81,66,30.61,30.47,6,1,8,0.00
2013-3-7,30,18,2,20,13,-1,87,78,61,30.49,30.33,8,2,13,0.00
2013-3-8,34,26,22,25,21,18,87,81,66,30.39,30.19,5,2,10,0.00
2013-3-9,28,27,24,26,23,20,92,87,81,30.18,29.95,9,2,14,0.00
2013-3-10,24,18,6,18,13,1,84,80,73,30.34,30.15,10,4,18,0.00
2013-3-11,23,13,2,15,7,-3,86,77,59,30.27,30.00,3,1,5,0.00
2013-3-12,24,18,9,17,13,4,87,82,74,30.48,30.05,13,4,22,0.00
2013-3-13,23,11,-4,19,5,-8,87,77,64,30.57,30.26,7,1,8,0.00
2013-3-14,35,26,20,26,21,17,89,81,70,30.27,30.19,8,2,11,0.10
2013-3-15,22,18,9,18,14,6,88,86,81,30.27,30.09,11,4,13,0.00
2013-3-16,8,1,-6,4,-4,-11,84,79,73,30.52,30.27,6,2,10,0.00
2013-3-17,23,6,-14,20,1,-19,89,79,72,30.51,29.79,12,4,15,0.00
2013-3-18,29,16,6,27,12,-1,91,84,75,30.15,29.59,21,7,28,0.00
2013-3-19,14,5,-5,3,-4,-11,76,68,54,30.52,30.14,10,4,15,0.00
2013-3-20,16,6,-4,5,-2,-9,78,70,58,30.55,30.39,11,3,13,0.00
2013-3-21,15,4,-9,8,-2,-13,84,77,67,30.38,30.30,4,1,7,0.00
2013-3-22,18,7,-6,11,2,-10,84,79,70,30.34,30.28,5,1,6,0.00
2013-3-23,26,17,8,19,11,4,86,78,69,30.38,30.33,5,1,10,0.00
2013-3-24,29,22,13,23,17,10,88,82,73,30.37,30.31,8,2,15,0.04
2013-3-25,27,22,13,20,16,8,85,80,72,30.51,30.38,11,2,15,0.00
2013-3-26,24,14,3,16,8,-2,87,79,67,30.54,30.47,4,1,5,0.00
2013-3-27,36,15,-4,25,9,-8,88,78,62,30.52,30.45,3,0,6,0.00
2013-3-28,41,30,18,29,23,13,90,77,63,30.46,30.37,8,1,9,0.00
2013-3-29,38,25,12,32,22,9,92,89,78,30.38,30.14,4,1,5,0.01
2013-3-30,39,34,28,32,30,27,93,85,74,30.13,30.02,7,2,10,0.02
2013-3-31,34,26,16,30,19,9,87,76,62,30.38,29.99,16,5,20,0.00
2013-4-1,29,20,10,17,12,5,84,72,58,30.51,30.38,6,2,10,0.00
2013-4-2,30,20,11,19,14,8,89,77,58,30.54,30.43,4,1,4,0.00
2013-4-3,41,30,15,34,23,12,88,76,65,30.50,30.06,11,3,20,0.00
2013-4-4,34,30,20,27,23,16,84,75,65,30.42,30.16,8,4,16,0.00
2013-4-5,33,25,13,28,20,10,89,82,66,30.42,29.93,9,3,14,0.00
2013-4-6,38,33,30,33,30,26,91,86,81,29.99,29.80,7,2,11,0.29
2013-4-7,39,33,31,31,29,27,92,85,71,30.04,29.92,4,1,9,0.27
2013-4-8,32,28,19,30,24,10,93,85,70,30.42,29.92,13,6,18,0.04
2013-4-9,27,20,14,18,12,6,77,72,66,30.54,30.41,11,5,15,0.00
2013-4-10,34,27,19,26,21,14,81,77,69,30.52,30.18,11,4,13,0.02
2013-4-11,33,30,27,26,25,22,91,83,67,30.18,29.98,15,5,16,0.01
2013-4-12,33,28,26,28,25,23,91,86,78,30.05,29.98,9,3,11,0.01
2013-4-13,32,28,24,25,23,19,91,80,64,30.07,30.01,5,2,9,0.01
2013-4-14,33,29,22,30,25,18,93,83,67,30.06,29.62,17,7,21,0.00
2013-4-15,35,32,30,33,30,28,93,90,84,30.12,29.52,13,4,15,0.27
2013-4-16,37,30,23,30,26,20,89,83,70,30.51,30.13,5,2,11,0.00
2013-4-17,35,31,28,31,28,25,92,89,83,30.54,30.27,5,2,9,0.17
2013-4-18,36,32,28,31,27,23,92,83,70,30.26,29.98,13,4,22,0.07
2013-4-19,34,29,24,24,21,18,81,73,61,30.22,29.94,17,5,22,0.00
2013-4-20,38,28,19,24,18,11,81,66,35,30.38,30.23,9,2,11,0.00
2013-4-21,40,34,30,35,30,24,89,82,74,30.32,30.10,10,4,14,0.06
2013-4-22,34,30,27,26,24,21,84,77,67,30.49,30.31,9,3,12,0.00
2013-4-23,40,31,22,27,22,17,83,71,53,30.47,30.15,7,2,9,0.00
2013-4-24,43,33,25,34,28,23,91,81,59,30.18,30.02,19,3,25,0.03
2013-4-25,45,36,27,36,28,22,85,72,49,30.27,30.04,10,2,15,0.00
2013-4-26,65,49,31,44,37,29,90,67,37,30.18,30.00,5,1,9,0.00
2013-4-27,73,57,42,51,42,33,78,58,39,30.16,29.81,12,4,17,0.00
2013-4-28,60,52,42,46,40,28,81,63,36,29.97,29.70,12,3,18,0.00
2013-4-29,67,50,31,45,35,27,87,60,31,29.99,29.50,8,2,11,0.00
2013-4-30,56,49,35,46,36,23,90,63,43,30.19,29.41,15,6,22,0.05
2013-5-1,41,35,29,26,23,19,78,62,53,30.73,30.18,13,4,19,0.00
2013-5-2,39,32,24,25,24,22,89,73,58,30.85,30.69,10,2,14,0.00
2013-5-3,51,37,23,27,24,20,90,62,39,30.69,30.38,11,3,16,0.00
2013-5-4,50,43,38,39,31,24,88,64,50,30.40,30.34,12,4,16,0.08
2013-5-5,51,44,38,43,39,35,91,83,72,30.37,30.25,7,2,9,0.14
2013-5-6,68,56,44,47,44,41,88,67,44,30.25,30.11,4,1,6,0.00
2013-5-7,78,63,45,48,44,39,92,55,26,30.12,29.95,8,2,14,0.00
2013-5-8,74,59,47,47,43,34,79,57,33,30.17,29.99,8,2,14,0.00
2013-5-9,66,53,38,34,27,17,70,42,15,30.27,30.17,14,5,24,0.00
2013-5-10,70,52,37,37,30,20,85,46,26,30.27,29.97,16,4,24,0.00
2013-5-11,51,43,34,29,20,12,73,44,21,30.41,30.23,18,5,26,0.00
2013-5-12,64,47,28,22,16,8,62,33,12,30.39,30.12,6,1,10,0.00
2013-5-13,91,66,49,42,29,20,35,26,11,30.12,29.65,16,4,26,0.00
2013-5-14,84,68,55,55,42,31,80,41,19,29.85,29.54,21,5,28,0.10
2013-5-15,82,65,49,44,36,27,67,40,13,29.93,29.83,11,2,19,0.00
2013-5-16,78,62,49,51,40,33,77,49,20,30.02,29.92,12,3,18,0.01
2013-5-17,74,65,53,53,45,34,72,50,31,30.00,29.93,9,4,10,0.00
2013-5-18,84,68,57,64,58,52,92,72,38,29.94,29.79,7,2,13,0.53
2013-5-19,77,65,57,67,60,54,93,83,55,29.80,29.62,10,4,14,1.40
2013-5-20,64,58,55,60,55,52,93,91,83,29.65,29.52,9,4,12,0.80
2013-5-21,55,50,47,52,46,43,92,87,82,29.96,29.64,15,7,20,0.28
2013-5-22,71,58,46,50,42,31,87,62,23,30.16,29.96,16,6,22,0.01
2013-5-23,69,59,46,44,33,22,73,42,17,30.40,30.19,8,3,13,0.00
2013-5-24,68,55,42,48,39,29,84,57,28,30.37,30.21,8,3,13,0.00
2013-5-25,71,61,53,52,50,48,84,67,50,30.25,30.16,8,4,16,0.00
2013-5-26,61,57,53,48,46,42,77,66,53,30.24,30.09,9,3,11,0.00
2013-5-27,70,61,54,56,50,45,81,70,55,30.11,29.86,5,1,6,0.00
2013-5-28,74,63,57,58,54,52,91,75,51,29.88,29.70,5,2,11,0.00
2013-5-29,73,62,55,61,57,52,93,83,65,29.77,29.66,6,2,9,2.98
2013-5-30,78,66,60,64,61,58,93,83,54,29.67,29.46,6,3,12,1.22
2013-5-31,64,61,59,59,56,53,92,84,74,29.65,29.39,7,2,7,0.14
2013-6-1,60,51,46,56,46,42,92,83,68,30.18,29.65,10,3,17,0.05
2013-6-2,64,53,41,44,40,33,91,64,33,30.23,30.11,4,1,8,0.00
2013-6-3,63,56,44,47,42,38,81,62,43,30.15,30.03,5,1,6,0.02
2013-6-4,59,55,51,54,50,45,91,83,71,30.09,29.99,7,3,8,0.31
2013-6-5,61,56,53,54,51,50,93,85,72,30.16,30.02,5,1,9,0.23
2013-6-6,68,59,51,50,47,43,88,67,42,30.18,30.10,4,1,10,0.00
2013-6-7,73,61,51,52,49,45,88,66,39,30.13,29.93,6,1,8,0.17
2013-6-8,76,64,52,55,51,48,90,65,42,29.95,29.88,5,2,9,0.01
2013-6-9,65,59,53,58,54,51,93,85,72,29.95,29.91,3,1,6,0.47
2013-6-10,74,63,49,60,55,47,94,78,58,29.93,29.84,4,0,7,0.00
2013-6-11,81,70,56,60,49,39,84,53,23,30.00,29.88,4,1,9,0.00
2013-6-12,74,67,59,55,51,47,76,58,42,30.13,29.92,6,1,15,0.00
2013-6-13,80,68,53,55,50,46,83,56,32,30.21,30.07,4,0,6,0.00
2013-6-14,83,73,63,62,57,52,72,58,42,30.08,29.81,9,1,13,0.00
2013-6-15,83,71,57,61,47,33,80,48,17,29.99,29.85,8,1,13,0.00
2013-6-16,85,72,56,51,45,38,71,42,19,29.95,29.86,11,2,19,0.00
2013-6-17,77,68,58,57,53,48,76,60,43,30.11,29.94,10,2,12,0.00
2013-6-18,82,69,55,57,51,46,88,56,30,30.18,30.01,2,0,4,0.00
2013-6-19,89,76,60,59,54,48,78,48,27,30.03,29.89,3,0,6,0.00
2013-6-20,83,72,62,68,62,55,92,73,51,29.99,29.84,6,2,19,1.39
2013-6-21,80,70,61,68,63,58,92,79,58,30.04,29.81,5,0,17,0.18
2013-6-22,84,73,64,67,64,62,92,75,49,29.97,29.83,4,1,6,0.01
2013-6-23,78,69,62,65,61,55,93,76,47,29.88,29.67,6,2,12,1.39
2013-6-24,86,73,61,65,60,51,88,65,30,29.89,29.80,4,1,5,0.00
2013-6-25,88,75,64,73,68,60,92,79,62,29.81,29.65,6,1,14,2.15
2013-6-26,86,73,62,69,63,59,93,73,42,29.84,29.61,8,1,15,1.74
2013-6-27,84,75,67,64,58,52,79,58,33,29.92,29.84,13,-9,16,0.00
2013-6-28,79,72,64,59,57,54,76,61,46,29.99,29.92,19,3,21,0.00
2013-6-29,80,70,61,61,58,53,89,67,39,30.10,29.98,7,2,10,0.00
2013-6-30,83,73,59,61,54,48,91,56,30,30.22,30.10,4,1,7,0.00
2013-7-1,87,74,60,60,53,43,80,53,24,30.30,30.20,3,0,5,0.00
2013-7-2,89,76,62,60,54,48,83,51,25,30.22,30.09,2,0,6,0.00
2013-7-3,89,77,62,61,56,52,82,52,30,30.09,29.91,3,0,5,0.00
2013-7-4,90,78,63,62,57,50,69,49,30,29.91,29.73,5,1,11,0.00
2013-7-5,90,80,68,68,63,59,85,59,38,29.80,29.74,3,0,7,0.00
2013-7-6,81,74,70,70,66,62,91,76,64,29.85,29.78,3,0,6,0.39
2013-7-7,82,74,67,69,62,53,93,68,38,30.01,29.84,4,1,11,0.00
2013-7-8,88,74,58,64,59,55,91,63,37,30.05,29.94,3,0,5,0.00
2013-7-9,75,70,61,67,62,53,92,74,56,30.10,29.81,9,2,16,0.15
2013-7-10,79,69,55,57,53,47,87,60,33,30.16,30.06,6,1,9,0.00
2013-7-11,87,74,58,65,59,52,81,62,44,30.09,29.85,8,2,12,0.00
2013-7-12,91,79,72,71,66,62,87,65,49,29.90,29.75,6,1,10,0.00
2013-7-13,88,77,66,72,69,65,94,78,54,30.02,29.90,3,1,7,0.00
2013-7-14,77,72,68,68,66,61,90,80,68,30.23,30.02,6,0,12,0.00
2013-7-15,73,70,65,70,67,63,93,89,81,30.24,30.10,2,0,7,0.13
2013-7-16,91,80,70,69,67,64,84,66,42,30.18,30.09,6,2,8,0.00
2013-7-17,92,77,63,72,67,60,89,72,50,30.24,30.07,4,0,6,0.00
2013-7-18,93,81,70,72,69,66,91,68,47,30.07,29.72,7,2,10,0.00
2013-7-19,84,72,64,67,60,57,90,68,41,29.96,29.77,7,1,13,0.30
2013-7-20,72,63,56,60,53,50,88,70,48,30.09,29.96,6,1,8,0.00
2013-7-21,83,69,52,65,57,48,88,68,50,30.05,29.69,5,1,8,0.00
2013-7-22,74,68,57,65,58,51,86,71,56,30.01,29.69,6,1,12,0.00
2013-7-23,74,62,50,57,52,47,89,71,47,30.13,30.02,4,1,7,0.00
2013-7-24,82,68,52,58,54,50,91,64,38,30.14,29.95,4,1,9,0.00
2013-7-25,80,68,58,61,54,46,88,64,36,30.05,29.96,12,2,16,0.00
2013-7-26,68,61,54,53,48,42,89,65,42,30.27,30.05,11,3,15,0.02
2013-7-27,69,60,46,48,44,40,85,59,36,30.28,30.11,12,2,14,0.00
2013-7-28,74,62,46,49,45,42,91,59,34,30.15,30.09,3,0,7,0.00
2013-7-29,77,64,48,57,51,44,90,66,41,30.13,30.07,5,1,10,0.12
2013-7-30,77,68,58,61,58,56,90,74,51,30.13,30.09,2,0,6,0.00
2013-7-31,75,66,57,57,51,46,90,62,37,30.16,30.09,7,1,14,0.00
2013-8-1,80,68,56,55,50,47,81,56,33,30.09,29.96,7,1,13,0.00
2013-8-2,74,65,53,55,49,44,86,61,35,30.16,29.98,6,1,10,0.00
2013-8-3,74,64,55,52,48,43,83,58,33,30.32,30.17,7,1,11,0.00
2013-8-4,77,64,50,55,50,45,84,63,44,30.32,29.98,4,1,8,0.00
2013-8-5,71,64,60,58,55,53,90,73,54,29.99,29.89,5,1,10,0.00
2013-8-6,75,64,54,64,58,50,92,81,64,29.97,29.78,5,1,10,0.30
2013-8-7,73,62,50,54,50,46,87,67,43,30.11,29.97,4,0,4,0.00
2013-8-8,75,65,55,55,52,47,90,67,40,30.12,30.06,3,0,10,0.00
2013-8-9,68,60,48,54,49,44,85,68,52,30.23,30.11,5,1,11,0.00
2013-8-10,73,62,50,55,52,48,91,71,47,30.29,30.14,3,0,5,0.00
2013-8-11,75,64,56,58,54,52,89,72,46,30.18,30.11,6,1,9,0.00
2013-8-12,78,65,51,55,50,44,88,63,38,30.23,30.14,6,1,10,0.00
2013-8-13,75,61,45,51,44,38,84,57,28,30.32,30.23,3,0,10,0.00
2013-8-14,76,62,44,51,46,41,86,60,29,30.26,30.14,2,0,5,0.00
2013-8-15,79,68,57,62,56,48,82,67,42,30.16,30.12,3,0,6,0.00
2013-8-16,80,70,59,60,56,51,87,62,37,30.19,30.13,4,1,8,0.00
2013-8-17,83,71,58,65,60,54,90,70,53,30.15,30.00,6,1,8,0.00
2013-8-18,84,74,64,68,64,59,84,72,57,30.04,29.89,6,2,11,0.00
2013-8-19,90,78,65,71,68,62,92,71,49,29.95,29.84,3,1,5,0.00
2013-8-20,95,82,70,73,70,66,89,69,41,29.84,29.74,6,2,10,0.00
2013-8-21,82,72,59,71,55,46,85,58,29,30.14,29.79,8,2,11,0.00
2013-8-22,79,69,59,51,47,41,71,48,27,30.27,30.14,3,1,7,0.00
2013-8-23,85,71,52,68,56,46,86,63,40,30.19,29.95,5,1,11,0.00
2013-8-24,93,82,72,73,70,67,85,67,45,29.95,29.75,8,2,12,0.00
2013-8-25,92,81,67,77,72,64,93,75,56,29.96,29.81,4,0,25,0.41
2013-8-26,89,78,68,76,70,61,92,77,51,29.97,29.87,6,0,10,0.00
2013-8-27,90,77,63,71,66,60,91,70,45,29.97,29.86,3,0,5,0.00
2013-8-28,90,79,72,73,69,66,87,73,48,30.02,29.96,2,0,4,0.00
2013-8-29,87,77,70,74,70,66,93,79,58,29.99,29.85,4,1,15,0.18
2013-8-30,85,73,63,66,64,59,93,75,43,30.06,29.89,3,0,4,0.00
2013-8-31,85,75,63,69,63,54,91,67,46,29.92,29.74,6,1,11,0.00
2013-9-1,68,61,52,57,52,47,87,74,53,30.14,29.89,7,1,14,0.00
2013-9-2,71,57,43,52,47,41,93,71,42,30.24,30.09,4,0,6,0.00
2013-9-3,84,67,50,61,54,46,88,66,41,30.09,30.01,5,1,7,0.00
2013-9-4,78,65,51,61,48,42,85,59,28,30.25,30.08,6,1,8,0.00
2013-9-5,87,71,54,65,56,46,83,62,43,30.26,30.04,4,1,7,0.00
2013-9-6,88,77,68,69,66,63,89,70,48,30.04,29.89,4,0,6,0.00
2013-9-7,86,73,64,67,61,55,91,67,40,30.11,29.92,9,2,12,0.00
2013-9-8,69,64,59,62,59,55,92,83,64,30.11,29.90,5,1,7,1.51
2013-9-9,74,67,63,68,64,61,93,90,81,29.89,29.67,9,0,9,0.49
2013-9-10,75,66,60,61,60,58,94,80,57,30.00,29.86,2,0,9,0.01
2013-9-11,79,66,57,60,52,44,90,65,31,30.24,29.99,12,1,18,0.00
2013-9-12,70,59,50,54,49,46,88,71,45,30.38,30.24,5,0,8,0.00
2013-9-13,74,60,46,53,49,43,92,68,43,30.32,30.03,3,1,7,0.00
2013-9-14,61,58,53,57,53,47,93,84,62,30.04,29.90,4,0,6,1.05
2013-9-15,63,54,45,55,47,42,93,78,48,30.41,30.04,9,1,11,0.00
2013-9-16,67,55,42,51,45,39,93,72,45,30.44,30.19,4,1,9,0.01
2013-9-17,66,58,52,57,52,45,88,80,73,30.20,29.88,5,1,11,0.00
2013-9-18,79,67,59,70,62,56,92,85,71,29.88,29.59,5,1,9,0.00
2013-9-19,72,64,55,63,57,50,93,77,48,29.93,29.64,5,1,13,0.00
2013-9-20,59,53,48,52,46,41,92,78,53,30.08,29.94,4,1,13,0.08
2013-9-21,61,51,42,45,42,39,92,74,51,30.13,29.96,2,0,4,0.00
2013-9-22,78,63,47,56,50,43,88,65,46,29.96,29.67,7,2,12,0.00
2013-9-23,78,68,61,53,51,50,70,56,39,29.86,29.69,10,3,16,0.00
2013-9-24,73,62,55,56,52,48,90,72,42,30.00,29.86,2,0,4,0.00
2013-9-25,76,63,49,57,52,46,93,71,45,29.97,29.79,5,2,12,0.00
2013-9-26,81,69,63,60,56,51,75,63,45,29.83,29.71,9,2,15,0.00
2013-9-27,64,55,51,56,49,46,92,82,71,29.87,29.79,5,1,12,0.06
2013-9-28,60,52,49,50,47,42,93,83,59,29.91,29.71,5,1,10,1.37
2013-9-29,76,59,45,51,45,40,82,62,28,29.92,29.60,4,1,10,0.00
2013-9-30,75,64,51,54,49,43,83,61,32,29.64,29.54,3,0,4,0.00
2013-10-1,69,59,48,53,39,30,78,51,23,30.02,29.57,7,2,15,0.00
2013-10-2,64,52,42,47,42,35,90,69,47,30.09,30.01,9,1,13,0.00
2013-10-3,54,49,42,48,44,40,91,82,72,30.19,30.05,7,1,10,0.00
2013-10-4,50,45,42,43,40,37,91,84,75,30.28,30.05,15,5,24,0.19
2013-10-5,51,47,45,46,44,43,92,90,83,30.05,29.92,15,5,19,0.62
2013-10-6,62,49,40,43,40,37,92,74,45,30.02,29.92,11,2,14,0.38
2013-10-7,65,51,37,44,39,34,90,67,36,30.08,29.88,3,0,5,0.00
2013-10-8,73,59,50,49,46,40,81,63,39,29.88,29.68,8,1,8,0.00
2013-10-9,70,56,42,47,42,37,91,64,32,30.07,29.84,4,1,9,0.00
2013-10-10,72,61,52,55,50,44,84,69,52,30.04,29.76,5,1,10,0.00
2013-10-11,68,62,52,58,53,47,88,73,55,29.77,29.40,9,4,19,0.55
2013-10-12,55,48,40,47,41,33,90,76,49,30.28,29.50,10,3,17,0.21
2013-10-13,58,46,34,42,35,31,88,67,37,30.50,30.29,4,0,6,0.00
2013-10-14,50,46,42,42,40,38,91,83,65,30.48,30.16,9,3,12,1.37
2013-10-15,44,42,34,41,39,30,91,87,79,30.16,30.05,14,5,18,0.52
2013-10-16,59,43,30,41,34,28,92,73,41,30.15,29.92,6,1,9,0.00
2013-10-17,47,43,34,42,35,27,85,73,54,30.08,29.92,14,2,15,0.00
2013-10-18,48,38,30,37,31,26,88,78,48,30.09,29.89,4,1,13,0.09
2013-10-19,43,37,32,35,32,29,91,81,62,29.90,29.82,6,1,11,0.03
2013-10-20,39,35,33,35,30,21,92,82,62,30.10,29.73,8,2,15,0.33
2013-10-21,38,34,30,27,24,20,75,68,60,30.12,30.09,6,2,13,0.00
2013-10-22,39,35,30,29,26,23,83,71,53,30.21,30.12,7,1,10,0.00
2013-10-23,38,34,30,30,25,21,87,70,55,30.30,30.17,9,2,14,0.00
2013-10-24,41,36,28,31,29,25,90,76,61,30.42,30.30,5,1,12,0.00
2013-10-25,59,41,27,40,30,23,85,67,38,30.41,29.88,12,4,20,0.00
2013-10-26,43,37,31,29,26,24,77,66,52,30.30,30.04,10,2,18,0.00
2013-10-27,46,38,32,31,28,24,79,67,50,30.43,29.88,13,3,16,0.00
2013-10-28,35,28,21,24,18,16,82,69,48,30.69,30.44,8,3,12,0.00
2013-10-29,35,29,22,28,22,16,82,75,69,30.62,30.26,3,0,5,0.00
2013-10-30,37,35,33,35,32,28,92,89,79,30.25,29.83,1,0,3,0.01
2013-10-31,44,39,36,38,35,32,92,85,73,29.82,29.55,5,1,7,0.00
2013-11-1,48,38,29,36,32,26,90,79,60,30.05,29.61,8,1,11,0.00
2013-11-2,51,38,26,37,31,23,91,76,45,30.17,30.05,4,1,7,0.00
2013-11-3,54,46,36,35,33,30,84,61,44,30.09,29.74,10,4,20,0.00
2013-11-4,46,38,25,35,28,19,80,66,49,30.21,29.74,11,2,15,0.00
2013-11-5,37,29,24,23,19,16,77,67,54,30.36,30.22,5,1,9,0.00
2013-11-6,38,27,17,27,20,12,84,75,63,30.31,30.21,2,0,4,0.00
2013-11-7,40,28,19,25,20,14,87,74,56,30.38,30.25,3,0,8,0.00
2013-11-8,44,34,23,33,27,18,90,77,43,30.25,29.71,9,2,14,0.08
2013-11-9,39,37,33,34,28,24,88,72,60,30.41,29.75,16,6,24,0.00
2013-11-10,38,27,16,28,21,9,86,76,64,30.52,30.26,11,-8,14,0.00
2013-11-11,17,13,7,9,5,2,79,70,60,30.95,30.52,11,2,14,0.00
2013-11-12,36,22,7,16,9,2,79,60,36,30.94,30.37,8,4,13,0.00
2013-11-13,59,37,23,36,26,16,85,67,38,30.36,29.94,8,3,13,0.00
2013-11-14,44,37,28,35,31,24,88,78,70,29.95,29.87,5,1,11,0.00
2013-11-15,49,36,20,38,30,18,91,81,59,29.90,29.52,8,1,13,0.09
2013-11-16,44,38,32,39,35,29,91,87,80,29.51,29.38,7,1,10,0.18
2013-11-17,37,31,25,35,27,19,91,84,76,30.08,29.45,17,6,20,0.02
2013-11-18,30,25,23,21,18,16,84,76,63,30.34,30.09,10,2,16,0.00
2013-11-19,45,36,23,35,27,19,84,72,61,30.28,29.70,8,4,15,0.00
2013-11-20,43,29,18,34,23,12,86,79,69,30.33,29.73,11,3,21,0.00
2013-11-21,18,12,4,12,6,-1,83,77,70,30.82,30.34,16,4,20,0.00
2013-11-22,19,9,-1,14,3,-6,85,75,67,31.02,30.64,8,3,15,0.00
2013-11-23,10,1,-7,1,-4,-12,81,76,67,31.14,30.79,5,1,9,0.00
2013-11-24,40,24,7,28,15,1,77,69,54,30.78,29.95,11,4,19,0.00
2013-11-25,35,29,21,27,22,11,83,76,63,30.34,29.96,16,4,23,0.00
2013-11-26,20,14,5,12,7,1,85,73,65,30.63,30.35,16,4,20,0.00
2013-11-27,24,14,2,11,7,-3,85,72,53,30.60,30.15,9,1,16,0.00
2013-11-28,22,15,6,15,8,2,85,73,61,30.64,30.29,10,3,16,0.00
2013-11-29,34,22,6,19,14,2,86,70,54,30.63,30.14,11,2,20,0.00
2013-11-30,26,23,19,20,18,15,87,82,74,30.39,30.16,7,1,9,0.00
2013-12-1,26,21,18,23,18,15,89,86,80,30.39,29.97,5,2,6,0.00
2013-12-2,29,27,25,27,24,22,91,89,85,29.96,29.73,9,3,12,0.00
2013-12-3,25,22,19,22,18,15,90,87,83,30.03,29.83,11,4,15,0.00
2013-12-4,26,16,6,24,14,3,91,87,85,30.00,29.84,14,5,21,0.00
2013-12-5,6,-1,-6,2,-6,-12,85,78,74,30.54,29.97,16,5,19,0.00
2013-12-6,-6,-10,-15,-11,-16,-21,77,73,68,30.86,30.54,4,2,10,0.00
2013-12-7,-8,-14,-18,-16,-21,-24,78,72,66,30.88,30.73,4,2,8,0.00
2013-12-8,5,-4,-18,-1,-9,-23,83,78,74,30.72,30.25,6,1,7,0.00
2013-12-9,1,-6,-13,-3,-12,-19,82,74,67,30.30,29.97,5,2,12,0.00
2013-12-10,6,-4,-12,0,-10,-18,81,78,74,30.60,30.03,6,1,10,0.00
2013-12-11,-1,-9,-17,-6,-16,-23,82,73,66,30.73,30.41,7,2,9,0.00
2013-12-12,13,4,-4,5,-2,-8,82,77,68,30.46,30.38,7,2,13,0.00
2013-12-13,2,-2,-3,-4,-8,-10,80,75,71,30.58,30.42,12,6,15,0.00
2013-12-14,1,-3,-11,-5,-9,-17,81,78,73,30.56,30.39,4,1,8,0.00
2013-12-15,3,-6,-11,-2,-12,-17,80,75,70,30.44,30.20,4,1,8,0.00
2013-12-16,32,18,3,27,13,-2,84,80,72,30.21,30.00,10,4,17,0.00
2013-12-17,30,13,0,25,8,-4,83,78,71,30.27,30.03,15,3,20,0.00
2013-12-18,28,17,1,21,11,-5,84,78,73,30.21,29.76,10,3,16,0.00
2013-12-19,1,-3,-6,-5,-9,-12,81,77,74,30.45,30.22,8,3,15,0.00
2013-12-20,6,-3,-12,0,-8,-16,83,80,76,30.40,30.06,4,0,6,0.00
2013-12-21,1,-6,-11,-3,-11,-15,83,79,76,30.39,30.06,8,2,11,0.00
2013-12-22,-4,-8,-12,-10,-14,-19,78,75,70,30.68,30.36,7,3,11,0.00
2013-12-23,-9,-15,-19,-18,-22,-26,77,70,64,30.85,30.64,6,1,13,0.00
2013-12-24,16,2,-18,12,-4,-24,84,78,70,30.64,30.20,8,3,16,0.00
2013-12-25,23,16,12,19,10,6,87,79,70,30.35,30.15,8,2,14,0.00
2013-12-26,25,18,13,22,14,9,88,84,80,30.27,30.19,4,1,7,0.00
2013-12-27,39,31,24,32,27,20,89,84,76,30.19,29.96,13,3,16,0.18
2013-12-28,33,14,-14,30,10,-20,91,85,76,30.61,29.82,17,4,28,0.00
2013-12-29,-7,-12,-16,-15,-18,-22,76,73,66,30.69,30.42,11,1,16,0.00
2013-12-30,0,-8,-19,-5,-13,-25,80,77,75,30.51,30.36,5,1,9,0.00
2013-12-31,-16,-18,-20,-22,-24,-26,77,74,69,30.72,30.46,5,1,7,0.00
2014-1-1,-7,-14,-20,-14,-20,-25,77,74,72,30.77,30.69,4,0,5,0.00
2014-1-2,-7,-17,-26,-13,-22,-32,79,76,71,30.78,30.36,4,1,12,0.00